Simultaneous Nadir Overpasses (SNOs) Predictions

Prediction of SNOs between GOES-17 and METOP-C Satellite Orbit:

Table of predicted SNOs for the next 14.0 days since TLE Epoch: 2/27/2021
Index Date Time (GOES-17) GOES-17 Lat,Lon METOP-C Lat,Lon Distance(km) Time Diff (sec)
1 02/27/2021 18:37:59 0.03,-137.22 -0.06,-136.84 42.87 80
2 03/01/2021 06:59:39 -0.04,-137.21 -1.01,-141.43 481.25 80
3 03/02/2021 06:36:20 -0.03,-137.21 0.16,-136.45 87.92 80
4 03/03/2021 18:55:12 0.03,-137.22 0.85,-141.01 431.17 80
5 03/04/2021 18:37:13 0.03,-137.22 -0.25,-136.02 137.50 80
6 03/06/2021 06:56:12 -0.03,-137.20 -0.79,-140.60 388.04 80
7 03/07/2021 06:32:53 -0.03,-137.19 0.32,-135.61 180.08 80
8 03/08/2021 18:51:45 0.03,-137.18 0.71,-140.17 340.59 80
9 03/09/2021 18:33:46 0.02,-137.17 -0.40,-135.17 227.38 80
10 03/11/2021 06:52:45 -0.02,-137.15 -0.63,-139.76 298.87 80
11 03/12/2021 06:29:25 -0.02,-137.14 0.48,-134.77 269.03 80
